Flag for U.S.A. Weather past 2 weeks in Baltimore, Maryland, U.S.A.

Now
71 °F

Passing clouds.


Feels Like: 68 °F
Forecast: 72 / 92 °F
Wind: 6 mph from South

Location: Baltimore-Washington International Airport

Current Time: Jul 23, 2014 at 7:37:04 AM

Latest Report: Jul 23, 2014 at 5:54 AM


Visibility: 10 mi

Pressure: 29.98 "Hg

Humidity: 90%

Dew point: 68 °F

Location of BaltimoreLocation

Historic Weather in Baltimore — Graph

°F

Baltimore temperature yesterday

Maximum temperature yesterday: 81 °F (at 12:54 PM)
Minimum temperature yesterday: 70 °F (at 3:54 AM)
Average temperature yesterday: 74 °F

Past Weeks' High & Low Weather Summary

 TemperatureHumidityPressure
High93 °F (Jul 8, 2:54 PM)97% (Jul 14, 3:54 AM)30.23 "Hg (Jul 14, 3:54 AM)
Low58 °F (Jul 18, 5:54 AM)38% (Jul 17, 6:54 PM)29.70 "Hg (Jul 8, 6:54 PM)
Average76 °F71%30.03 "Hg
* Reported Jul 8 5:54 AM — Jul 23 5:54 AM, Baltimore, Weather by CustomWeather, © 2014

Note: Actual official high and low records may vary slightly from our data, if they occured in-between our weather recording intervals... More about our weather records

Advertising

Baltimore weather history for previous 24 hours

 ConditionsComfort  
Time TempWeatherWind HumidityBarometerVisibility
5:54 AM
Jul 23
71 °FPassing clouds.6 mph90%29.98 "Hg10 mi
4:54 AM71 °FPassing clouds.No wind90%30.00 "Hg10 mi
3:54 AM71 °FClear.No wind87%30.01 "Hg10 mi
1:54 AM72 °FClear.3 mph81%30.04 "Hg10 mi
12:54 AM73 °FClear.No wind79%30.05 "Hg10 mi
11:54 PM
Jul 22
74 °FClear.No wind74%30.07 "Hg10 mi
10:54 PM75 °FClear.3 mph69%30.08 "Hg10 mi
9:54 PM76 °FPassing clouds.3 mph64%30.08 "Hg10 mi
8:54 PM77 °FScattered clouds.3 mph66%30.07 "Hg10 mi
7:54 PM80 °FScattered clouds.6 mph60%30.07 "Hg10 mi
12:54 PM81 °FBroken clouds.5 mph70%30.16 "Hg10 mi
11:54 AM80 °FBroken clouds.3 mph69%30.16 "Hg10 mi
10:54 AM78 °FBroken clouds.7 mph71%30.17 "Hg10 mi
9:54 AM76 °FMore clouds than sun.3 mph80%30.18 "Hg10 mi
8:54 AM75 °FBroken clouds.3 mph85%30.19 "Hg10 mi
7:54 AM72 °FPartly sunny.No wind91%30.19 "Hg10 mi
Weather by CustomWeather, © 2014

See weather overviewHow to use our weather pages